Change the Weather History Date:

Wednesday, March 27, 2013

  Actual Average Record
Temperature  
Mean Temperature 33 °F 38 °F  
Max Temperature 43 °F 47 °F 75 °F (1946)
Min Temperature 23 °F 29 °F 5 °F (1921)
Degree Days  
Heating Degree Days 32 27  
Month to date heating degree days 1061 895  
Since 1 July heating degree days 6595 6685  
Cooling Degree Days 0 0  
Month to date cooling degree days 0 0  
Year to date cooling degree days 0 0  
Moisture  
Dew Point 19 °F    
Average Humidity 61    
Maximum Humidity 88    
Minimum Humidity 33    
Precipitation  
Precipitation 0.00 in 0.07 in 1.52 in (1998)
Month to date precipitation 1.85 1.61  
Year to date precipitation 4.04 3.28  
Snow  
Snow 0.00 in 0.20 in 5.60 in (1965)
Month to date snowfall 13.8 9.5  
Since 1 July snowfall 49.3 51.2  
Snow Depth 4.00 in    
Sea Level Pressure  
Sea Level Pressure 30.35 in    
Wind  
Wind Speed 2 mph (SW)    
Max Wind Speed 9 mph    
Max Gust Speed 24 mph    
Visibility 9 miles    
Events      
T = Trace of Precipitation, MM = Missing Value Source: NWS Daily Summary

Daily Weather History Graph

Daily Weather History Graph

Search for Another Location

Airport or City:

Trip Planner

Search our weather history database for the weather conditions in past years. The results will help you decide how hot, cold, wet, or windy it might be!

Date:

Astronomy

Mar. 27, 2013 Rise Set
Actual Time 7:02 AM CDT 7:34 PM CDT
Civil Twilight 6:33 AM CDT 8:04 PM CDT
Nautical Twilight 5:58 AM CDT 8:39 PM CDT
Astronomical Twilight 5:22 AM CDT 9:15 PM CDT
Moon 8:22 PM CDT (3/27) 6:51 AM CDT (3/27)
Length of Visible Light 13h 31m
Length of Day
12h 32m
Full, 100% of the Moon is Illuminated
Mar 27
Full
Apr 2
Last Quarter
Apr 10
New
Apr 18
First Quarter
Apr 25
Full

Hourly Weather History & Observations

Time (CDT) Temp. Windchill Dew Point Humidity Pressure Visibility Wind Dir Wind Speed Gust Speed Precip Events Conditions
12:53 AM 28.9 °F - 21.0 °F 72% 30.34 in 10.0 mi Calm Calm - N/A   Mostly Cloudy
1:53 AM 28.0 °F 24.2 °F 21.0 °F 75% 30.34 in 9.0 mi SW 3.5 mph - N/A   Mostly Cloudy
2:53 AM 28.0 °F - 21.0 °F 75% 30.34 in 8.0 mi Calm Calm - N/A   Mostly Cloudy
3:53 AM 27.0 °F - 21.0 °F 78% 30.34 in 7.0 mi Calm Calm - N/A   Mostly Cloudy
4:53 AM 25.0 °F - 21.0 °F 85% 30.34 in 9.0 mi Calm Calm - N/A   Scattered Clouds
5:53 AM 24.1 °F 18.2 °F 19.9 °F 84% 30.35 in 9.0 mi SW 4.6 mph - N/A   Scattered Clouds
6:53 AM 23.0 °F 18.4 °F 19.0 °F 85% 30.35 in 6.0 mi SW 3.5 mph - N/A   Partly Cloudy
7:53 AM 24.1 °F - 19.9 °F 84% 30.37 in 10.0 mi Calm Calm - N/A   Scattered Clouds
8:53 AM 26.1 °F - 21.0 °F 81% 30.37 in 10.0 mi Calm Calm - N/A   Scattered Clouds
9:53 AM 30.9 °F - 21.9 °F 69% 30.37 in 10.0 mi Calm Calm - N/A   Scattered Clouds
10:53 AM 36.0 °F - 19.0 °F 50% 30.37 in 9.0 mi Calm Calm - N/A   Scattered Clouds
11:53 AM 37.9 °F 35.5 °F 17.1 °F 43% 30.37 in 10.0 mi SE 3.5 mph - N/A   Scattered Clouds
12:53 PM 39.0 °F 36.8 °F 15.1 °F 38% 30.36 in 10.0 mi SSE 3.5 mph - N/A   Scattered Clouds
1:53 PM 39.9 °F - 16.0 °F 38% 30.36 in 10.0 mi Calm Calm - N/A   Scattered Clouds
2:53 PM 43.0 °F - 16.0 °F 34% 30.34 in 10.0 mi Calm Calm - N/A   Scattered Clouds
3:53 PM 42.1 °F - 16.0 °F 35% 30.33 in 10.0 mi Calm Calm - N/A   Partly Cloudy
4:53 PM 42.1 °F 39.2 °F 17.1 °F 37% 30.32 in 10.0 mi SSW 4.6 mph - N/A   Partly Cloudy
5:53 PM 42.1 °F 39.2 °F 18.0 °F 38% 30.32 in 10.0 mi Variable 4.6 mph - N/A   Clear
6:53 PM 41.0 °F 37.1 °F 18.0 °F 40% 30.33 in 10.0 mi SW 5.8 mph - N/A   Clear
7:53 PM 39.0 °F 34.8 °F 18.0 °F 43% 30.34 in 10.0 mi WSW 5.8 mph - N/A   Clear
8:53 PM 37.0 °F 33.3 °F 19.0 °F 48% 30.35 in 10.0 mi WSW 4.6 mph - N/A   Clear
9:53 PM 34.0 °F 28.8 °F 19.9 °F 56% 30.36 in 10.0 mi WNW 5.8 mph - N/A   Clear
10:53 PM 35.1 °F - 19.0 °F 52% 30.36 in 10.0 mi Calm Calm - N/A   Clear
11:53 PM 34.0 °F - 19.9 °F 56% 30.37 in 10.0 mi Calm Calm - N/A   Clear